Wooster, OH

3:40 PM EST on February 20, 2017 (GMT -0500)
Wayne County

Weather History for KBJJ - September, 2013

Change the Weather History Date:

Sunday, September 15, 2013

  Actual Average Record
Temperature  
Mean Temperature 52 °F -  
Max Temperature 66 °F 72 °F 86 °F (2008)
Min Temperature 39 °F 48 °F 36 °F (1999)
Degree Days  
Heating Degree Days 14    
Growing Degree Days 2 (Base 50)    
Moisture  
Dew Point 46 °F    
Average Humidity 82    
Maximum Humidity 100    
Minimum Humidity 56    
Precipitation  
Precipitation 0.01 in - - ()
Sea Level Pressure  
Sea Level Pressure 30.14 in    
Wind  
Wind Speed 2 mph (South)    
Max Wind Speed 8 mph    
Max Gust Speed -    
Visibility 7 miles    
Events Fog , Rain    
Averages and records for this station are not official NWS values.
T = Trace of Precipitation, MM = Missing Value Source: NWS Daily Summary

Daily Weather History Graph

Daily Weather History Graph

Search for Another Location

Airport or City:

Trip Planner

Search our weather history database for the weather conditions in past years. The results will help you decide how hot, cold, wet, or windy it might be!

Date:

Astronomy

Sep. 15, 2013 Rise Set
Actual Time 7:08 AM EDT 7:36 PM EDT
Civil Twilight 6:40 AM EDT 8:03 PM EDT
Nautical Twilight 6:08 AM EDT 8:36 PM EDT
Astronomical Twilight 5:35 AM EDT 9:09 PM EDT
Moon 5:03 PM EDT (9/15) 2:43 AM EDT (9/15)
Length of Visible Light 13h 22m
Length of Day
12h 27m
Waxing Gibbous, 82% of the Moon is Illuminated
Sep 15
Waxing Gibbous
Sep 19
Full
Sep 26
Last Quarter
Oct 4
New
Oct 11
First Quarter

Hourly Weather History & Observations

Time (EDT) Temp. Windchill Dew Point Humidity Pressure Visibility Wind Dir Wind Speed Gust Speed Precip Events Conditions
12:56 AM 45.0 °F - 44.1 °F 97% 30.15 in 3.0 mi Calm Calm - N/A   Clear
1:56 AM 45.0 °F - 44.1 °F 97% 30.14 in 3.0 mi Calm Calm - N/A   Clear
2:56 AM 43.0 °F - 42.1 °F 97% 30.15 in 8.0 mi Calm Calm - N/A   Clear
3:56 AM 41.0 °F - 39.9 °F 96% 30.15 in 4.0 mi Calm Calm - N/A   Clear
4:45 AM 41.0 °F - 39.2 °F 93% 30.15 in 1.8 mi Calm Calm - N/A   Clear
4:56 AM 42.1 °F - 39.9 °F 92% 30.17 in 6.0 mi Calm Calm - N/A   Clear
5:15 AM 39.2 °F - 39.2 °F 100% 30.16 in 1.0 mi Calm Calm - N/A   Clear
5:22 AM 41.0 °F - 39.2 °F 93% 30.16 in 0.2 mi Calm Calm - N/A Fog Fog
5:56 AM 39.9 °F 37.8 °F 39.0 °F 97% 30.16 in 0.8 mi SE 3.5 mph - N/A   Clear
6:00 AM 39.2 °F 37.0 °F 39.2 °F 100% 30.15 in 1.2 mi SE 3.5 mph - N/A   Clear
6:05 AM 41.0 °F 39.0 °F 39.2 °F 93% 30.15 in 3.0 mi SE 3.5 mph - N/A   Clear
6:56 AM 41.0 °F - 39.9 °F 96% 30.18 in 8.0 mi Calm Calm - N/A   Clear
7:56 AM 43.0 °F - 42.1 °F 97% 30.20 in 3.0 mi Calm Calm - N/A   Clear
8:56 AM 50.0 °F - 48.0 °F 93% 30.19 in 6.0 mi Calm Calm - N/A   Clear
9:56 AM 55.9 °F - 50.0 °F 80% 30.19 in 10.0 mi Calm Calm - N/A   Clear
10:56 AM 61.0 °F - 48.0 °F 62% 30.18 in 10.0 mi WSW 5.8 mph - N/A   Clear
11:56 AM 62.1 °F - 46.9 °F 58% 30.17 in 10.0 mi WSW 4.6 mph - N/A   Clear
12:56 PM 62.1 °F - 48.9 °F 62% 30.16 in 10.0 mi South 6.9 mph - N/A   Clear
1:56 PM 64.0 °F - 51.1 °F 63% 30.14 in 10.0 mi Variable 3.5 mph - N/A   Partly Cloudy
2:56 PM 64.9 °F - 50.0 °F 58% 30.12 in 10.0 mi SSW 4.6 mph - N/A   Clear
3:56 PM 64.9 °F - 50.0 °F 58% 30.11 in 10.0 mi South 3.5 mph - N/A   Clear
4:56 PM 64.9 °F - 48.9 °F 56% 30.11 in 10.0 mi South 8.1 mph - N/A   Clear
5:56 PM 64.9 °F - 50.0 °F 58% 30.09 in 10.0 mi South 5.8 mph - N/A   Clear
6:56 PM 63.0 °F - 50.0 °F 63% 30.08 in 10.0 mi South 4.6 mph - N/A   Overcast
7:56 PM 61.0 °F - 52.0 °F 72% 30.10 in 10.0 mi Calm Calm - 0.00 in   Overcast
8:56 PM 59.0 °F - 54.0 °F 83% 30.11 in 10.0 mi Calm Calm - N/A   Scattered Clouds
9:56 PM 57.9 °F - 55.0 °F 90% 30.11 in 10.0 mi NNW 3.5 mph - 0.00 in Rain Light Rain
10:56 PM 57.9 °F - 54.0 °F 87% 30.10 in 10.0 mi NNE 4.6 mph - 0.00 in   Overcast
11:56 PM 57.0 °F - 55.0 °F 93% 30.12 in 7.0 mi North 3.5 mph - 0.01 in Rain Light Rain